Regional Weather Roundup
Issued by NWS Burlington, VT

Home | Current Version | Previous Version | Text Only | Print | Product List | Glossary On
Versions: 1 2 3 4 5 6 7 8 9 10 11 12 13 14 15 16 17 18 19 20 21 22 23 24 25 26 27 28 29 30 31 32 33 34 35 36 37 38 39 40 41 42 43 44 45 46 47 48 49 50
000
ASUS41 KBTV 270430
RWRBTV
VERMONT REGIONAL WEATHER ROUNDUP
NATIONAL WEATHER SERVICE BURLINGTON VT
1100 PM EST THU FEB 26 2015

NOTE: "FAIR" INDICATES FEW OR NO CLOUDS BELOW 12,000 FEET WITH NO
SIGNIFICANT WEATHER AND/OR OBSTRUCTIONS TO VISIBILITY.

* THESE REPORTS ARE NOT UNDER NWS QUALITY CONTROL AND/OR DO NOT
  REPORT WEATHER SUCH AS PRECIPITATION AND FOG.

VTZ001>019-270500-
_____VERMONT_____


CITY           SKY/WX    TMP DP  RH WIND       PRES   REMARKS
BURLINGTON     PTCLDY     6 -10  47 N3        30.19R
MONTPELIER     CLOUDY     3  -9  57 NW3       30.12R
MORRISVILLE    MOCLDY     3  -9  57 CALM      30.14R
ST. JOHNSBURY*   N/A      6  -8  52 MISG      30.11R
LYNDONVILLE*   MOCLDY     3 -12  48 W5        30.09R
MIDDLEBURY*    FAIR       3  -6  66 CALM      30.16S
RUTLAND*       PTCLDY     5  -6  61 N3        30.11F
SPRINGFIELD    CLOUDY    11  -6  46 NW6       30.11R
HIGHGATE*      FAIR      -3  -9  74 CALM      30.21R
NEWPORT*       MOCLDY     0 -12  56 CALM      30.12R
BENNINGTON     CLOUDY    10  -5  50 CALM      30.08F
SUTTON*          N/A      0 N/A N/A MISG        N/A
GALLUP MILLS*    N/A      0 N/A N/A MISG        N/A
MT. MANSFIELD*   N/A     -4 N/A N/A CALM        N/A

_____LAKE CHAMPLAIN_____


CITY           SKY/WX    TMP DP  RH WIND       PRES   REMARKS
BURTON ISLAND*   N/A      5  -2  72 W1          N/A
COLCHESTER RF*   N/A      9  -2  61 N1          N/A
DIAMOND ISL*     N/A      7  -4  61 W1          N/A

$$

NYZ007-026>031-035-052-083-270500-
_____NORTHERN NEW YORK_____


CITY           SKY/WX    TMP DP  RH WIND       PRES   REMARKS
PLATTSBURGH    PTCLDY     0  -7  72 CALM      30.20R
SARANAC LAKE   CLEAR     -7 -13  75 CALM      30.04R
MASSENA        PTCLDY    -5 -13  68 S3        30.23S
OGDENSBURG*    CLEAR    -11 -17  77 CALM      30.22S
POTSDAM*       PTCLDY    -6  -9  84 CALM      30.21R
STARK FALLS*     N/A     -6 N/A N/A SE2         N/A
WATERTOWN      PTCLDY    -6 -13  71 E3        30.23R
FT DRUM        CLOUDY     0  -8  69 W3        30.18R
ALBANY         CLOUDY    12  -2  53 N8        30.18R
GLENS FALLS    CLOUDY     9  -6  50 NE5       30.17S

$$
NHZ002-005-011-270500-
_____NEW HAMPSHIRE_____


CITY           SKY/WX    TMP DP  RH WIND       PRES   REMARKS
LEBANON        CLOUDY    13  -5  44 N6        30.11R
KEENE          CLOUDY    16  -2  45 N8        30.08F
MT WASHINGTON  SNOWSHWR  -4  -9  77 NW28        N/A  DRFTSNOWWCI -30
PLYMOUTH       CLOUDY    12  -3  52 W7        30.09S
WHITEFIELD     CLOUDY     7  -9  48 CALM      30.07R

$$

_____REGIONAL QUEBEC LOCATIONS_____


CITY           SKY/WX    TMP DP  RH WIND       PRES   REMARKS
MONTREAL       MOCLDY     3 -11  51 W7        30.21R
QUEBEC CITY    PTCLDY    -2 -13  60 W7        30.14S
SHERBROOKE     CLEAR     -2 -11  65 W2        30.12R

_____REGIONAL ONTARIO LOCATIONS_____


CITY           SKY/WX    TMP DP  RH WIND       PRES   REMARKS
OTTAWA         PTCLDY     0 -13  55 SW3       30.21R

______KEY______
VSB  - VISIBILITY IN MILES
WCI  - WIND CHILL INDEX
HX   - HEAT INDEX
$$



USA.gov is the U.S. government's official web portal to all federal, state and local government web resources and services.